User: anonymous   Login
Location: Chipmunk Meadow
(41.1540°N, 122.8814°W)
Time: 14:26:33
(UTC+00:00)
Language:

Cosmos 2278 Rocket - Orbit

View from above orbital plane
View from above orbital plane
View from above satellite
View from above satellite

Ground track
Ground track

The orbit data is extracted from the following two-line orbital elements,

1 23088U 94023B   24169.82147560 -.00000218  00000-0 -88406-4 0  9997
2 23088  71.0002 313.5271 0003869 210.9644 149.1251 14.14848338556998
Epoch (UTC): 17 June 2024 19:42:55
Eccentricity: 0.0003869
inclination: 71.0002°
perigee height: 840 km
apogee height: 845 km
right ascension of ascending node: 313.5271°
argument of perigee: 210.9644°
revolutions per day: 14.14848338
mean anomaly at epoch: 149.1251°
orbit number at epoch: 55699

The dashed part of the orbit path shows where the satellite is in the earth's shadow,  

DLR